Wind_Speed
20 21 22 21 24 19 17 16 17 17 19 17 21 20 20 22 26 35 36 34 31 30 28 27 25 25 26 25 25 24 24 23 22 23 22 21 20 21
19 20 23 19 23 20 21 20 18 20 20 18 23 22 22 24 25 30 34 36 36 34 32 30 28 27 26 26 26 26 25 25 24 24 24 23 22 22
12 10 13 18 20 23 23 22 25 23 24 19 23 27 28 26 28 30 32 34 35 34 33 32 30 29 28 27 26 26 26 25 25 24 23 23 23 23
10 10 11 17 20 23 26 28 29 29 30 27 27 29 29 26 27 31 32 33 31 30 31 30 30 30 28 27 26 26 25 25 25 25 25 24 24 23
8 8 11 15 20 25 31 33 32 30 30 31 31 33 30 29 26 27 31 35 35 32 32 31 32 31 30 30 29 29 28 28 28 27 27 26 25 25
9 8 10 14 20 22 27 31 28 30 28 29 26 32 33 31 32 29 28 29 34 37 37 35 34 36 35 33 32 32 31 31 30 30 29 27 27 26
10 10 11 13 16 14 15 19 21 23 25 26 25 28 35 32 30 31 30 30 29 32 37 38 39 40 38 37 35 35 34 33 33 32 31 30 30 27
10 11 11 11 13 13 11 13 15 17 20 21 23 27 27 28 29 33 39 37 35 29 30 35 39 40 36 35 34 36 37 37 36 36 35 33 31 28
12 12 11 12 11 10 11 12 13 16 16 16 23 24 31 26 28 28 32 35 37 37 36 30 31 32 29 28 28 30 32 32 34 34 34 32 30 28
15 16 13 12 11 8 9 9 6 10 14 19 22 26 29 31 30 31 29 29 31 38 37 33 31 31 29 31 30 29 30 30 29 28 26 27 29 28
19 18 16 14 14 11 8 7 6 6 5 6 15 18 24 29 29 32 34 36 29 25 30 38 37 32 32 32 33 33 31 30 30 29 26 27 31 29
25 22 20 18 18 16 16 13 10 9 10 9 8 10 15 16 27 31 23 22 30 34 33 34 32 29 34 32 30 29 32 35 34 29 29 35 32 30
28 28 26 23 21 19 19 19 18 15 12 11 11 10 10 12 17 19 20 22 28 27 21 24 30 34 30 29 28 29 33 31 38 33 32 31 27 29
35 32 31 29 28 25 25 22 22 20 17 15 13 13 13 13 13 17 23 22 24 22 22 23 21 24 28 25 31 23 25 32 30 37 33 27 31 31
26 37 44 32 30 27 25 23 22 21 21 21 19 15 16 18 19 17 15 18 21 22 22 23 27 29 23 28 30 27 27 26 26 28 28 27 27 29
26 26 37 34 29 28 26 26 25 23 23 22 22 21 19 19 20 22 22 23 25 24 23 24 29 31 32 32 34 33 30 25 25 28 30 29 27 25
31 23 31 32 26 29 31 33 34 31 26 24 25 26 25 23 22 24 24 25 24 25 26 28 30 32 32 33 34 33 32 31 30 30 30 28 27 26
26 21 14 20 26 35 42 46 40 37 30 27 28 28 29 29 28 27 25 23 24 23 25 27 29 32 32 33 34 33 32 32 33 31 30 29 28 26
28 28 27 28 32 29 27 32 39 37 34 31 30 28 28 29 31 34 35 31 29 27 26 28 28 29 30 31 30 31 32 33 31 32 30 30 28 25
24 27 28 29 32 28 23 16 18 24 33 32 30 28 26 26 25 27 34 32 29 29 29 28 29 27 26 26 29 29 29 31 33 32 31 30 28 27
20 22 23 25 29 31 31 30 31 31 32 31 25 25 29 24 25 22 20 21 24 28 31 30 33 35 29 31 30 25 25 26 25 24 23 25 25 27
16 18 20 22 23 25 29 31 28 29 26 30 29 27 28 30 29 28 30 26 29 23 23 30 34 36 33 35 38 33 29 29 30 30 32 33 38 41
15 15 15 15 17 19 20 26 25 28 28 28 33 29 29 29 31 32 31 31 22 21 22 22 25 32 34 27 30 34 33 36 35 35 37 35 35 37
Wind_Direction
258 257 244 247 236 248 257 262 267 251 247 236 235 232 233 226 220 222 224 226 228 230 231 233 235 238 242 242 243 241 241 241 240 242 244 244 247 249
263 261 246 255 239 251 257 261 263 260 249 239 234 227 227 227 221 225 228 229 231 233 235 237 240 241 240 240 239 239 240 242 243 243 245 247 248 251
262 265 251 239 240 253 259 262 266 261 263 243 238 229 227 226 224 224 224 227 229 233 238 239 240 238 235 234 235 236 236 237 240 242 244 247 250 254
258 264 264 258 257 261 263 264 263 264 263 251 239 230 225 228 228 230 228 226 227 229 233 237 235 235 236 234 233 234 236 237 238 239 240 244 251 258
252 272 270 273 271 266 263 262 262 258 259 257 239 230 229 230 231 231 234 232 227 227 232 233 236 236 237 236 235 234 234 235 238 242 245 249 255 261
251 277 284 293 287 274 262 255 257 255 257 259 247 231 231 231 239 232 231 234 236 231 231 233 237 241 240 238 236 236 236 238 241 245 249 253 258 263
263 283 300 321 321 299 272 252 249 248 254 243 234 230 225 237 230 236 233 236 238 231 234 236 239 239 239 241 241 242 242 243 245 249 253 258 260 259
271 284 296 311 331 335 291 259 242 246 252 248 228 232 224 231 242 241 241 239 243 236 239 239 238 238 238 243 245 246 244 246 249 251 252 254 256 256
257 270 286 304 316 326 333 283 254 245 249 251 223 235 237 228 236 247 240 241 245 243 235 232 239 237 239 247 242 244 244 246 248 252 253 250 247 246
253 256 266 283 297 313 331 345 295 276 265 250 245 243 242 243 245 243 241 244 254 235 225 228 241 242 240 243 243 245 244 241 242 240 243 246 243 242
251 255 260 269 281 286 299 317 324 312 320 305 257 260 254 241 241 237 248 253 239 236 221 223 231 237 237 239 243 242 241 242 244 241 239 248 247 246
256 249 251 256 263 272 279 287 292 300 307 302 291 261 264 255 245 248 246 226 230 234 236 231 229 237 241 236 243 243 241 237 240 239 234 245 246 247
266 258 252 248 248 255 266 273 280 287 291 291 279 277 266 264 258 253 235 222 232 248 237 235 249 247 245 244 242 251 248 245 236 241 236 239 245 256
263 264 256 250 251 252 255 257 269 271 272 277 279 267 259 257 256 255 256 253 250 249 257 260 259 247 252 253 247 257 252 251 248 245 245 242 249 264
260 278 248 247 251 252 253 259 262 266 266 266 265 268 266 259 258 254 251 256 256 250 265 271 271 266 275 266 262 263 251 254 259 262 253 250 256 256
259 277 250 247 249 251 257 260 261 266 268 257 260 259 260 261 261 262 259 255 253 255 254 256 268 265 262 260 261 255 248 253 254 254 259 262 259 255
264 289 255 236 246 258 260 262 263 262 263 261 255 256 257 258 261 261 259 257 257 256 255 255 254 257 258 261 260 257 254 253 254 254 255 254 253 254
262 269 260 236 263 270 259 256 250 256 264 270 258 255 255 260 255 256 261 264 265 262 260 260 257 256 255 254 256 255 254 252 248 248 250 254 254 256
258 260 259 257 267 277 283 253 242 246 257 266 260 259 258 260 261 257 256 259 262 264 261 260 259 260 260 262 263 261 261 260 252 256 258 258 259 262
254 259 261 260 262 262 274 268 255 246 257 261 259 256 263 260 265 268 256 257 260 259 253 253 258 255 261 263 256 252 255 256 257 258 258 260 261 254
262 266 268 268 266 260 258 257 256 259 258 258 254 263 263 257 261 258 262 269 269 267 263 265 261 252 245 255 262 261 256 255 250 247 246 248 252 254
272 270 269 267 264 263 258 253 248 253 248 256 256 257 261 263 261 260 267 270 275 271 276 275 260 256 250 255 260 259 249 242 245 252 257 265 272 270
277 275 272 272 271 268 264 245 260 248 261 254 262 251 263 272 265 271 273 265 261 268 264 262 269 266 266 255 258 263 251 253 255 261 260 258 263 262
Height
3177 3178 3179 3180 3182 3183 3185 3185 3185 3185 3188 3190 3192 3193 3196 3197 3200 3203 3207 3211 3215 3218 3221 3223 3225 3228 3232 3234 3235 3237 3239 3241 3242 3244 3245 3246 3248 3248
3173 3173 3175 3176 3178 3180 3181 3180 3180 3181 3183 3186 3187 3189 3191 3193 3196 3198 3201 3206 3209 3213 3216 3219 3221 3223 3225 3228 3230 3231 3233 3236 3238 3239 3240 3242 3243 3244
3169 3170 3170 3171 3174 3175 3175 3176 3176 3177 3177 3181 3182 3184 3185 3188 3191 3193 3195 3198 3203 3207 3210 3213 3215 3217 3219 3221 3224 3226 3228 3230 3232 3233 3235 3237 3239 3240
3167 3168 3169 3169 3169 3170 3169 3170 3171 3172 3172 3175 3177 3178 3180 3182 3186 3188 3191 3193 3197 3200 3204 3207 3210 3212 3214 3216 3218 3221 3223 3225 3227 3228 3230 3232 3234 3236
3164 3164 3165 3164 3164 3163 3162 3162 3163 3164 3165 3166 3168 3170 3173 3177 3180 3183 3186 3188 3190 3194 3196 3200 3204 3206 3208 3211 3213 3215 3217 3219 3221 3223 3225 3227 3229 3231
3161 3162 3161 3160 3157 3154 3152 3152 3155 3156 3158 3158 3157 3163 3167 3171 3174 3177 3180 3183 3186 3188 3190 3193 3197 3199 3202 3204 3206 3208 3210 3212 3215 3218 3220 3222 3223 3225
3159 3159 3159 3156 3152 3148 3146 3146 3147 3149 3151 3151 3154 3157 3160 3164 3167 3169 3174 3177 3180 3182 3184 3186 3189 3192 3195 3197 3199 3202 3205 3207 3209 3211 3213 3215 3217 3218
3157 3156 3155 3154 3151 3147 3144 3143 3143 3144 3145 3145 3149 3151 3155 3158 3162 3162 3166 3169 3172 3175 3177 3180 3182 3184 3187 3189 3192 3195 3197 3199 3202 3203 3205 3207 3209 3211
3153 3153 3152 3151 3149 3146 3144 3142 3141 3141 3142 3143 3144 3148 3149 3152 3155 3156 3157 3161 3163 3166 3170 3173 3176 3179 3181 3183 3185 3187 3189 3191 3193 3195 3198 3199 3201 3203
3147 3148 3148 3148 3146 3145 3143 3141 3141 3141 3140 3140 3142 3143 3144 3146 3147 3148 3149 3153 3154 3157 3161 3165 3170 3173 3174 3176 3178 3179 3181 3183 3185 3187 3189 3192 3194 3196
3142 3143 3144 3144 3144 3143 3142 3141 3140 3140 3138 3137 3137 3137 3137 3139 3140 3142 3145 3145 3146 3146 3151 3158 3164 3166 3168 3170 3172 3173 3174 3177 3179 3181 3182 3185 3187 3189
3138 3137 3138 3139 3139 3139 3140 3139 3137 3136 3136 3135 3135 3134 3135 3135 3136 3137 3139 3137 3142 3144 3147 3151 3154 3157 3158 3161 3163 3164 3165 3169 3171 3173 3175 3179 3179 3180
3133 3133 3133 3133 3132 3134 3135 3136 3136 3135 3133 3132 3132 3132 3132 3132 3133 3133 3132 3135 3138 3139 3139 3143 3145 3148 3149 3153 3155 3156 3158 3158 3162 3164 3166 3169 3170 3172
3125 3127 3128 3127 3127 3128 3129 3130 3131 3130 3130 3130 3129 3128 3128 3127 3128 3129 3131 3132 3134 3136 3136 3138 3139 3138 3141 3143 3145 3147 3150 3150 3153 3154 3155 3159 3162 3163
3118 3117 3116 3120 3121 3122 3123 3125 3124 3125 3125 3125 3126 3125 3125 3124 3124 3124 3125 3127 3128 3131 3133 3134 3135 3134 3135 3137 3138 3138 3138 3144 3145 3147 3143 3148 3154 3156
3111 3110 3110 3111 3114 3117 3117 3118 3118 3119 3119 3119 3119 3119 3119 3119 3120 3120 3121 3121 3122 3124 3126 3128 3129 3130 3131 3132 3132 3134 3137 3138 3141 3143 3145 3146 3147 3148
3102 3101 3097 3104 3107 3110 3110 3110 3111 3111 3111 3112 3112 3113 3113 3113 3114 3114 3114 3114 3115 3117 3118 3119 3120 3121 3122 3123 3124 3125 3127 3129 3132 3134 3135 3137 3139 3141
3096 3096 3097 3098 3102 3100 3098 3098 3099 3102 3104 3104 3104 3105 3105 3106 3107 3107 3108 3109 3109 3110 3110 3110 3111 3111 3112 3114 3115 3117 3118 3121 3122 3125 3127 3129 3132 3134
3089 3090 3091 3092 3093 3091 3083 3083 3087 3090 3093 3093 3094 3097 3097 3097 3098 3099 3100 3101 3102 3103 3103 3103 3104 3105 3105 3107 3108 3110 3111 3112 3115 3117 3119 3120 3123 3126
3082 3083 3084 3084 3082 3082 3082 3079 3077 3081 3085 3086 3087 3088 3088 3088 3089 3088 3088 3091 3092 3093 3094 3095 3096 3098 3098 3099 3098 3101 3101 3103 3105 3108 3110 3112 3114 3116
3077 3076 3075 3074 3074 3075 3074 3076 3077 3076 3076 3077 3078 3079 3080 3080 3081 3081 3082 3083 3084 3085 3085 3086 3088 3087 3088 3088 3089 3093 3094 3096 3098 3100 3102 3102 3105 3107
3070 3069 3068 3068 3067 3066 3067 3068 3069 3069 3068 3070 3068 3071 3072 3072 3072 3073 3074 3074 3074 3074 3076 3077 3077 3077 3078 3079 3081 3082 3086 3088 3090 3092 3094 3094 3096 3097
3065 3064 3063 3062 3061 3061 3061 3061 3061 3061 3061 3062 3062 3062 3063 3065 3065 3066 3064 3064 3064 3065 3066 3068 3068 3069 3070 3071 3072 3075 3078 3079 3081 3083 3084 3085 3086 3086